Bremerton, WA

12:56 AM PST on December 11, 2019 (GMT -0800)
Bremerton National

Weather History for KPWT - August, 2019

Change the Weather History Date:

Tuesday, August 6, 2019

  Actual Average Record
Temperature  
Mean Temperature 70 °F -  
Max Temperature 87 °F 75 °F 88 °F (2018)
Min Temperature 53 °F 50 °F 46 °F (2013)
Cooling Degree Days 4    
Growing Degree Days 20 (Base 50)    
Moisture  
Dew Point 57 °F    
Average Humidity 85    
Maximum Humidity 100    
Minimum Humidity 43    
Precipitation  
Precipitation 0.00 in - - ()
Sea Level Pressure  
Sea Level Pressure 30.02 in    
Wind  
Wind Speed 4 mph (SW)    
Max Wind Speed 9 mph    
Max Gust Speed -    
Visibility 6 miles    
Events Fog    
Averages and records for this station are not official NWS values.
T = Trace of Precipitation, MM = Missing Value Source: NWS Daily Summary

Daily Weather History Graph

Daily Weather History Graph

Search for Another Location

Airport or City:

Astronomy

Aug. 06, 2019 Rise Set
Actual Time 5:55 AM PDT 8:37 PM PDT
Civil Twilight 5:19 AM PDT 9:12 PM PDT
Nautical Twilight 4:35 AM PDT 9:57 PM PDT
Astronomical Twilight 3:42 AM PDT 10:49 PM PDT
Moon 12:53 PM PDT (8/6) 11:56 PM PDT (8/6)
Length of Visible Light 15h 52m
Length of Day
14h 42m
Waxing Crescent, 40% of the Moon is Illuminated
Aug 6
Waxing Crescent
Aug 7
First Quarter
Aug 15
Full
Aug 23
Last Quarter
Aug 30
New

Hourly Weather History & Observations

Time (PDT) Temp. Heat Index Dew Point Humidity Pressure Visibility Wind Dir Wind Speed Gust Speed Precip Events Conditions
12:56 AM 57.9 °F - 57.0 °F 97% 30.04 in 10.0 mi SSW 3.5 mph - N/A   Clear
1:56 AM 55.9 °F - 55.0 °F 97% 30.05 in 6.0 mi SSW 3.5 mph - N/A   Clear
2:24 AM 55.4 °F - 55.4 °F 100% 30.01 in 1.5 mi SW 4.6 mph - N/A   Clear
2:33 AM 55.4 °F - 55.4 °F 100% 30.01 in 1.0 mi SW 3.5 mph - N/A   Clear
2:41 AM 53.6 °F - 53.6 °F 100% 30.01 in 1.8 mi SW 5.8 mph - N/A   Clear
2:45 AM 53.6 °F - 53.6 °F 100% 30.01 in 3.0 mi SW 5.8 mph - N/A   Clear
2:54 AM 53.6 °F - 53.6 °F 100% 30.01 in 5.0 mi SSW 4.6 mph - N/A   Scattered Clouds
2:56 AM 54.0 °F - 54.0 °F 100% 30.05 in 5.0 mi SW 4.6 mph - N/A   Scattered Clouds
3:03 AM 55.4 °F - 55.4 °F 100% 30.01 in 6.0 mi SSW 3.5 mph - N/A   Mostly Cloudy
3:36 AM 57.2 °F - 55.4 °F 94% 30.01 in 2.0 mi SW 5.8 mph - N/A   Overcast
3:56 AM 57.0 °F - 55.9 °F 96% 30.05 in 3.0 mi WSW 4.6 mph - N/A   Overcast
4:04 AM 57.2 °F - 57.2 °F 100% 30.01 in 1.8 mi WSW 6.9 mph - N/A   Overcast
4:22 AM 57.2 °F - 55.4 °F 94% 30.01 in 0.8 mi SW 6.9 mph - N/A   Overcast
4:56 AM 57.0 °F - 55.9 °F 96% 30.05 in 0.2 mi SSW 6.9 mph - N/A Fog Fog
5:05 AM 57.2 °F - 55.4 °F 94% 30.02 in 0.2 mi SSW 5.8 mph - N/A Fog Fog
5:56 AM 57.0 °F - 55.9 °F 96% 30.06 in 0.2 mi SW 4.6 mph - N/A Fog Fog
6:56 AM 55.9 °F - 55.9 °F 100% 30.07 in 0.2 mi SW 4.6 mph - N/A Fog Fog
7:56 AM 55.9 °F - 55.9 °F 100% 30.08 in 0.2 mi South 3.5 mph - N/A Fog Fog
8:47 AM 57.2 °F - 55.4 °F 94% 30.04 in 0.5 mi Calm Calm - N/A Fog Fog
8:56 AM 57.0 °F - 57.0 °F 100% 30.08 in 0.2 mi Calm Calm - N/A Fog Fog
9:03 AM 57.2 °F - 57.2 °F 100% 30.04 in 0.5 mi Calm Calm - N/A Fog Fog
9:06 AM 57.2 °F - 57.2 °F 100% 30.04 in 1.0 mi Calm Calm - N/A   Overcast
9:11 AM 57.2 °F - 57.2 °F 100% 30.04 in 2.0 mi Calm Calm - N/A   Overcast
9:38 AM 57.2 °F - 57.2 °F 100% 30.04 in 3.0 mi Calm Calm - N/A   Overcast
9:56 AM 57.9 °F - 57.0 °F 97% 30.09 in 9.0 mi Calm Calm - N/A   Overcast
10:38 AM 60.8 °F - 57.2 °F 88% 30.04 in 10.0 mi SSW 3.5 mph - N/A   Overcast
10:56 AM 61.0 °F - 57.0 °F 87% 30.08 in 10.0 mi Calm Calm - N/A   Overcast
11:04 AM 62.6 °F - 57.2 °F 82% 30.03 in 10.0 mi Variable 3.5 mph - N/A   Overcast
11:33 AM 64.4 °F - 57.2 °F 77% - 10.0 mi Variable 3.5 mph - N/A   Scattered Clouds
11:56 AM 68.0 °F - 59.0 °F 73% 30.06 in 10.0 mi NW 3.5 mph - N/A   Clear
12:56 PM 73.9 °F - 59.0 °F 59% 30.04 in 10.0 mi SE 3.5 mph - N/A   Clear
1:56 PM 79.0 °F - 61.0 °F 54% 30.01 in 10.0 mi Variable 4.6 mph - N/A   Clear
2:56 PM 82.9 °F 83.2 °F 60.1 °F 46% 29.99 in 10.0 mi WSW 3.5 mph - N/A   Clear
3:56 PM 86.0 °F 86.3 °F 62.1 °F 44% 29.97 in 9.0 mi Variable 4.6 mph - N/A   Clear
4:56 PM 84.9 °F 84.8 °F 60.1 °F 43% 29.95 in 10.0 mi NE 8.1 mph - N/A   Clear
5:56 PM 84.0 °F 84.0 °F 60.1 °F 44% 29.94 in 10.0 mi NE 9.2 mph - N/A   Clear
6:56 PM 81.0 °F 81.6 °F 60.1 °F 49% 29.94 in 10.0 mi NE 8.1 mph - N/A   Clear
7:56 PM 79.0 °F - 60.1 °F 52% 29.95 in 10.0 mi South 4.6 mph - N/A   Clear
8:56 PM 70.0 °F - 61.0 °F 73% 29.97 in 10.0 mi SW 6.9 mph - N/A   Clear
9:56 PM 66.0 °F - 59.0 °F 78% - 10.0 mi SSW 8.1 mph - N/A   Clear
10:56 PM 62.1 °F - 57.9 °F 86% 29.99 in 10.0 mi SSW 5.8 mph - N/A   Clear
11:56 PM 59.0 °F - 55.9 °F 90% 30.00 in 10.0 mi SSW 4.6 mph - N/A   Clear